DKH1132 ZBYN-ZSSS

Flight info

Callsign DKH1132
Flight time N/A
Altitude 31100
Route ANPIG6T ANPIG B208 HFE R343 SASAN SAS71A
Aircraft A321/M-SDE3FGHIRWY/LB1

Departure

Time 2026-04-28 12:59
Airport Taiyuan Wusu International Airport (ZBYN)

Arrival

Time N/A
Airport Shanghai Hongqiao International Airport (ZSSS)
Time Latitude Longitude Altitude Speed Heading
2026-04-28 12:40 37.75181 112.62960 2561 ft 0 kts 82°
2026-04-28 12:43 37.75181 112.62954 2561 ft 3 kts 82°
2026-04-28 12:43 37.75177 112.62921 2552 ft 4 kts 82°
2026-04-28 12:44 37.75175 112.62890 2558 ft 4 kts 119°
2026-04-28 12:44 37.75185 112.62883 2556 ft 4 kts 169°
2026-04-28 12:44 37.75206 112.62877 2557 ft 0 kts 169°
2026-04-28 12:47 37.75198 112.62879 2555 ft 4 kts 168°
2026-04-28 12:47 37.75152 112.62890 2559 ft 7 kts 170°
2026-04-28 12:48 37.75102 112.62900 2558 ft 8 kts 174°
2026-04-28 12:48 37.75049 112.62870 2559 ft 10 kts 216°
2026-04-28 12:48 37.75001 112.62826 2560 ft 9 kts 216°
2026-04-28 12:48 37.74947 112.62795 2561 ft 11 kts 185°
2026-04-28 12:49 37.74871 112.62827 2560 ft 12 kts 155°
2026-04-28 12:49 37.74784 112.62876 2561 ft 13 kts 156°
2026-04-28 12:49 37.74707 112.62917 2565 ft 13 kts 158°
2026-04-28 12:49 37.74632 112.62958 2567 ft 10 kts 152°
2026-04-28 12:50 37.74580 112.63017 2565 ft 11 kts 137°
2026-04-28 12:50 37.74520 112.63033 2569 ft 7 kts 199°
2026-04-28 12:50 37.74458 112.62982 2570 ft 13 kts 214°
2026-04-28 12:50 37.74413 112.63002 2573 ft 8 kts 126°
2026-04-28 12:51 37.74352 112.63107 2574 ft 21 kts 127°
2026-04-28 12:51 37.74258 112.63265 2571 ft 22 kts 127°
2026-04-28 12:51 37.74168 112.63413 2572 ft 21 kts 127°
2026-04-28 12:51 37.74083 112.63554 2573 ft 19 kts 128°
2026-04-28 12:52 37.74012 112.63672 2575 ft 15 kts 127°
2026-04-28 12:52 37.73951 112.63772 2576 ft 13 kts 127°
2026-04-28 12:52 37.73894 112.63869 2579 ft 16 kts 127°
2026-04-28 12:52 37.73837 112.63930 2580 ft 8 kts 188°
2026-04-28 12:53 37.73793 112.63896 2580 ft 8 kts 217°
2026-04-28 12:53 37.73746 112.63856 2576 ft 6 kts 194°
2026-04-28 12:53 37.73707 112.63901 2583 ft 12 kts 128°
2026-04-28 12:53 37.73637 112.64017 2584 ft 19 kts 128°
2026-04-28 12:54 37.73557 112.64151 2581 ft 19 kts 127°
2026-04-28 12:54 37.73474 112.64289 2583 ft 19 kts 127°
2026-04-28 12:54 37.73396 112.64418 2579 ft 18 kts 127°
2026-04-28 12:54 37.73319 112.64543 2581 ft 17 kts 128°
2026-04-28 12:55 37.73254 112.64649 2581 ft 16 kts 127°
2026-04-28 12:55 37.73172 112.64785 2587 ft 23 kts 127°
2026-04-28 12:55 37.73082 112.64935 2586 ft 21 kts 127°
2026-04-28 12:55 37.72995 112.65082 2586 ft 21 kts 127°
2026-04-28 12:56 37.72909 112.65225 2581 ft 20 kts 127°
2026-04-28 12:56 37.72823 112.65368 2581 ft 20 kts 127°
2026-04-28 12:56 37.72747 112.65497 2584 ft 17 kts 127°
2026-04-28 12:56 37.72685 112.65600 2587 ft 11 kts 127°
2026-04-28 12:57 37.72635 112.65631 2585 ft 7 kts 199°
2026-04-28 12:57 37.72587 112.65586 2586 ft 13 kts 217°
2026-04-28 12:57 37.72533 112.65523 2587 ft 5 kts 264°
2026-04-28 12:57 37.72544 112.65503 2590 ft 0 kts 305°
2026-04-28 12:58 37.72650 112.65323 2591 ft 61 kts 308°
2026-04-28 12:58 37.73041 112.64672 2583 ft 122 kts 307°
2026-04-28 12:58 37.73659 112.63640 2582 ft 170 kts 307°
2026-04-28 12:59 37.74432 112.62383 2943 ft 183 kts 309°
2026-04-28 12:59 37.75211 112.61113 3646 ft 184 kts 310°
2026-04-28 12:59 37.76002 112.59808 4238 ft 189 kts 309°
2026-04-28 12:59 37.76787 112.58500 4727 ft 193 kts 309°
2026-04-28 13:00 37.77637 112.57068 4888 ft 213 kts 309°
2026-04-28 13:00 37.78516 112.55459 5034 ft 233 kts 296°
2026-04-28 13:00 37.78817 112.53362 5156 ft 258 kts 260°
2026-04-28 13:00 37.78070 112.51262 5447 ft 273 kts 224°
2026-04-28 13:01 37.76464 112.49998 6026 ft 276 kts 199°
2026-04-28 13:01 37.74638 112.49183 6714 ft 280 kts 197°
2026-04-28 13:01 37.72766 112.48433 7413 ft 284 kts 196°
2026-04-28 13:01 37.70894 112.47707 8122 ft 287 kts 197°
2026-04-28 13:02 37.68977 112.46960 8839 ft 290 kts 198°
2026-04-28 13:02 37.67046 112.46200 9586 ft 292 kts 199°
2026-04-28 13:02 37.65095 112.45463 10289 ft 295 kts 192°
2026-04-28 13:02 37.63038 112.45358 10938 ft 299 kts 173°
2026-04-28 13:03 37.61014 112.46141 11282 ft 316 kts 152°
2026-04-28 13:03 37.59257 112.47938 11423 ft 338 kts 129°
2026-04-28 13:03 37.57810 112.50375 11638 ft 356 kts 126°
2026-04-28 13:03 37.56320 112.52911 12138 ft 363 kts 127°
2026-04-28 13:04 37.54817 112.55443 12724 ft 368 kts 127°
2026-04-28 13:04 37.53268 112.58037 13329 ft 372 kts 127°
2026-04-28 13:04 37.51696 112.60655 13939 ft 377 kts 127°
2026-04-28 13:04 37.50100 112.63300 14487 ft 381 kts 127°
2026-04-28 13:05 37.48483 112.65975 15022 ft 386 kts 127°
2026-04-28 13:05 37.46780 112.68606 15536 ft 391 kts 134°
2026-04-28 13:05 37.44718 112.70852 16055 ft 394 kts 146°
2026-04-28 13:05 37.42368 112.72552 16571 ft 397 kts 158°
2026-04-28 13:06 37.39758 112.73693 17083 ft 399 kts 168°
2026-04-28 13:06 37.37057 112.74578 17590 ft 403 kts 168°
2026-04-28 13:06 37.34329 112.75477 18087 ft 408 kts 167°
2026-04-28 13:06 37.31574 112.76385 18586 ft 411 kts 168°
2026-04-28 13:07 37.28793 112.77305 19015 ft 415 kts 169°
2026-04-28 13:07 37.25990 112.78234 19446 ft 418 kts 169°
2026-04-28 13:07 37.23167 112.79172 19883 ft 421 kts 169°
2026-04-28 13:07 37.20320 112.80115 20314 ft 424 kts 169°
2026-04-28 13:08 37.17562 112.81026 20718 ft 427 kts 170°
2026-04-28 13:08 37.14676 112.81976 21137 ft 431 kts 170°
2026-04-28 13:08 37.11766 112.82931 21569 ft 434 kts 170°
2026-04-28 13:08 37.08834 112.83896 21981 ft 437 kts 171°
2026-04-28 13:09 37.05885 112.84869 22405 ft 439 kts 171°
2026-04-28 13:09 37.02922 112.85846 22849 ft 442 kts 171°
2026-04-28 13:09 36.99942 112.86829 23263 ft 444 kts 171°
2026-04-28 13:09 36.96945 112.87821 23664 ft 447 kts 171°
2026-04-28 13:10 36.93967 112.88806 24020 ft 450 kts 171°
2026-04-28 13:10 36.90935 112.89806 24363 ft 451 kts 172°
2026-04-28 13:10 36.87899 112.90804 24748 ft 452 kts 172°
2026-04-28 13:10 36.84856 112.91805 25146 ft 452 kts 172°
2026-04-28 13:11 36.81811 112.92807 25542 ft 451 kts 173°
2026-04-28 13:11 36.78779 112.93804 25975 ft 451 kts 173°
2026-04-28 13:11 36.75747 112.94799 26350 ft 451 kts 174°
2026-04-28 13:11 36.72706 112.95794 26705 ft 452 kts 174°
2026-04-28 13:12 36.69702 112.96777 27045 ft 453 kts 174°
2026-04-28 13:12 36.66653 112.97776 27391 ft 454 kts 174°
2026-04-28 13:12 36.63594 112.98780 27732 ft 455 kts 174°
2026-04-28 13:12 36.60535 112.99786 28070 ft 456 kts 175°
2026-04-28 13:13 36.57465 113.00791 28396 ft 456 kts 175°
2026-04-28 13:13 36.54391 113.01788 28707 ft 457 kts 175°
2026-04-28 13:13 36.51308 113.02788 29003 ft 458 kts 175°
2026-04-28 13:13 36.48218 113.03792 29294 ft 459 kts 176°
2026-04-28 13:14 36.45168 113.04786 29585 ft 460 kts 176°
2026-04-28 13:14 36.42066 113.05796 29876 ft 461 kts 176°
2026-04-28 13:14 36.38954 113.06810 30161 ft 462 kts 176°
2026-04-28 13:14 36.35843 113.07825 30446 ft 462 kts 176°
2026-04-28 13:15 36.32740 113.08840 30795 ft 459 kts 176°
2026-04-28 13:15 36.29666 113.09848 31177 ft 456 kts 176°
2026-04-28 13:15 36.26598 113.10849 31304 ft 454 kts 176°
2026-04-28 13:16 36.20695 113.13184 31353 ft 442 kts 171°
2026-04-28 13:16 36.14957 113.15759 31349 ft 437 kts 172°
2026-04-28 13:17 36.09248 113.18308 31327 ft 436 kts 171°